Location: Pitton
(51.0667°N, 1.7000°W)
Time: 12:25:58
(UTC+00:00)

Cosmos 676 Rocket - Pass Details

Date: 17 September 2019
Orbit: 755 x 784 km, 74.0° (Epoch: 15 October)

Event Time Altitude Azimuth Distance (km) Brightness Sun altitude
Rises 19:37:33 0° 338° (NNW) 3,269 7.9 -13.1°
Reaches altitude 10° 19:40:05 10° 345° (NNW) 2,333 7.0 -13.5°
Maximum altitude 19:45:08 43° 57° (ENE) 1,072 4.5 -14.2°
Enters shadow 19:48:04 23° 117° (ESE) 1,610 5.0 -14.7°
